Regional Weather Roundup
Issued by NWS

Home | Current Version | Previous Version | Graphics & Text | Print | Product List | Glossary Off
Versions: 1 2 3 4 5 6 7 8 9 10 11 12 13 14 15 16 17 18 19 20 21 22 23 24 25 26 27 28 29 30 31 32 33 34 35 36 37 38 39 40 41 42 43 44 45 46 47 48 49 50

000
ASUS43 KLSX 280707
RWRMO

WEATHER SUMMARY FOR MISSOURI
NATIONAL WEATHER SERVICE SPRINGFIELD MO
200 AM CDT MON JUL 28 2014

NOTE: "FAIR" INDICATES FEW OR NO CLOUDS BELOW 12,000 FEET WITH NO
       SIGNIFICANT WEATHER AND/OR OBSTRUCTIONS TO VISIBILITY.
       CURRENT SKY AND/OR WEATHER CONDITIONS ARE NOT AVAILABLE FOR
       CHILLICOTHE AND FARMINGTON.

MOZ001>031-035>038-043-044-053-054-280800-
...NORTHERN AND WESTERN MISSOURI...

CITY           SKY/WX    TMP DP  RH WIND       PRES   REMARKS
KANSAS CTY INT PTCLDY    64  57  78 N6        30.15S
KANSAS C DTWN  CLEAR     68  59  73 N5        30.13S
LEE`S SUMMIT   CLEAR     67  57  70 N8        30.14S
ST JOSEPH      CLEAR     63  58  83 N3        30.16R
CHILLICOTHE      N/A     67  56  67 VRB3      30.13S
KIRKSVILLE     CLEAR     62  57  83 W8        30.09S

$$
MOZ066>068-077>081-088>096-101>105-280800-
...SOUTHWEST MISSOURI...

CITY           SKY/WX    TMP DP  RH WIND       PRES   REMARKS
SPRINGFIELD    CLEAR     67  58  72 N7        30.11R
JOPLIN         CLEAR     66  61  84 N3        30.13S

$$
MOZ032>034-039>042-045>050-055>058-069>072-280800-
...CENTRAL MISSOURI...

CITY           SKY/WX    TMP DP  RH WIND       PRES   REMARKS
COLUMBIA       CLEAR     65  58  78 NW9       30.08S
JEFFERSON CITY CLEAR     67  58  72 NW6       30.07S
ROLLA          CLEAR     66  56  70 N7        30.06S
SEDALIA        CLEAR     64  58  80 NW7       30.11S
WHITEMAN AFB   CLEAR     66  49  55 N9        30.11S
OSAGE BEACH    CLEAR     68  55  64 N5        30.09S

$$
MOZ051-052-059>065-280800-
...EAST CENTRAL MISSOURI...

CITY           SKY/WX    TMP DP  RH WIND       PRES   REMARKS
ST LOUIS INTL  CLEAR     70  58  65 NW8       30.01S
SPIRIT OF STL  CLEAR     68  58  70 NW7       30.01S
ST CHARLES     CLEAR     70  58  65 NW13      30.00S

$$
MOZ072>076-082>087-097>100-106>115-280800-
...SOUTH CENTRAL AND SOUTHEAST MISSOURI...

CITY           SKY/WX    TMP DP  RH WIND       PRES   REMARKS
CAPE GIRARDEAU CLEAR     69  60  73 N7        29.98S
FARMINGTON     CLEAR     70  57  64 NW7       30.04S
POPLAR BLUFF   CLEAR     70  60  70 N5        29.99R
WEST PLAINS    CLEAR     70  57  63 NW7       30.08S

$$


USA.gov is the U.S. government's official web portal to all federal, state and local government web resources and services.